Location: Newark
(51.5033°N, 0.1199°W)
Time: 00:46:34
(UTC+00:00)

PicSat - Pass Details

Date: 26 September 2019
Orbit: 486 x 499 km, 97.5° (Epoch: 21 October)

Event Time Altitude Azimuth Distance (km) Brightness Sun altitude
Exits shadow 20:52:35 15° 11° (N) 1,434 ? -27.4°
Drops below altitude 10° 20:53:22 10° 4° (N) 1,719 ? -27.5°
Sets 20:55:36 0° 354° (N) 2,608 ? -27.8°
